[[{"header":{"parameterUnit":"m.s-1","parameterCategory":1,"la1":30.2991,"la2":30.254,"lo1":-89.0895,"lo2":-89.0444,"dy":0.0017,"dx":0.0017,"nx":28,"ny":28,"refTime":"2024-02-18T09:00:00:Z","depth":0,"parameterNumber":2,"parameterNumberName":"U-component_of_WINDS"},"data":[0,0,0,0,0,0,0,0,0,0,0,0,0,0,0,0,0,0,0,0,0,0,0,0,0,0,0,0,0,0,0,0,0,0,0,0,0,0,0,0,0,0,0,0,0,0,0,0,0,0,0,0,0,0,0,0,0,0,-2.8793,-2.8794,0,-2.8811,-2.8811,-2.8811,-2.8723,-2.8721,-2.8718,-2.8716,-2.8734,-2.8737,-2.874,0,0,0,0,0,0,0,0,0,0,0,0,0,-2.8684,-2.8686,-2.8793,-2.8794,-2.8794,-2.8811,-2.8811,-2.8811,-2.8724,-2.8721,-2.8718,-2.8715,-2.8733,-2.8737,-2.874,0,0,0,0,0,0,0,0,0,0,0,0,0,-2.8719,-2.8687,-2.8793,-2.8752,-2.8749,-2.8811,-2.8811,-2.8811,-2.8724,-2.8721,-2.8717,-2.8713,-2.8732,-2.8736,-2.8741,-2.8843,0,0,-2.8754,-2.8756,0,0,0,0,0,0,0,0,-2.8717,-2.8723,-2.8758,-2.8755,-2.8751,-2.8761,-2.8779,-2.8822,-2.8725,-2.8734,-2.8716,-2.8711,-2.8746,-2.8749,-2.8761,-2.8844,-2.8845,-2.8754,-2.8757,-2.8759,-2.876,0,0,0,0,0,0,0,-2.8715,-2.8722,-2.88,-2.8759,-2.8754,-2.8733,-2.8734,-2.8787,-2.8761,-2.8733,-2.8726,-2.873,-2.8744,-2.8757,-2.8761,-2.8845,-2.8754,-2.8758,-2.8761,-2.8762,-2.9014,-2.9018,0,0,0,0,0,0,-2.8718,-2.8721,-2.88,-2.8801,-2.8725,-2.8738,-2.8739,-2.8762,-2.876,-2.8756,-2.8733,-2.8725,-2.8752,-2.8756,-2.8761,-2.8882,-2.8759,-2.8763,-2.8765,-2.901,-2.9015,-2.902,0,0,0,0,0,0,-2.8716,-2.8726,-2.8799,-2.8759,-2.8767,-2.8744,-2.877,-2.8764,-2.8777,-2.876,-2.8755,-2.8751,-2.8749,-2.8755,-2.8824,-2.8881,-2.8765,-2.8768,-2.9005,-2.9012,-2.9017,-2.9125,0,0,0,0,0,0,-2.8713,-2.8726,-2.8765,-2.8761,-2.8769,-2.8862,-2.8774,-2.8767,-2.8785,-2.8775,-2.8776,-2.8773,-2.8746,-2.8818,-2.8828,-2.8885,-2.8772,-2.9,-2.9008,-2.9015,-2.9116,-2.9134,-2.9149,0,0,0,0,0,-2.871,-2.8794,-2.8767,-2.8777,-2.8817,-2.8865,-2.887,-2.8838,-2.879,-2.8829,-2.8818,-2.8773,-2.8873,-2.8826,-2.8836,-2.8896,-2.8996,-2.9006,-2.9015,-2.9108,-2.913,-2.9149,0,0,0,0,0,0,-2.8806,-2.8793,-2.8763,-2.8849,-2.8859,-2.885,-2.8899,-2.8862,-2.8886,-2.8876,-2.8834,-2.8835,-2.8912,-2.891,-2.8857,-2.8995,-2.8926,-2.8938,-2.8994,-2.9014,-2.9031,-2.903,-2.8775,0,0,0,0,0,-2.8837,-2.8877,-2.8863,-2.8941,-2.8947,-2.8922,-2.8942,-2.8916,-2.8925,-2.8929,-2.8923,-2.8933,-2.8967,-2.899,-2.902,-2.9114,-2.9114,-2.916,-2.9177,-2.9191,-2.9202,-2.9252,-2.9273,-2.905,-2.905,-2.905,0,0,-2.8903,-2.89,-2.8928,-2.896,-2.8965,-2.9007,-2.8927,-2.8975,-2.9006,-2.8936,-2.9001,-2.8997,-2.9005,-2.9088,-2.9124,-2.9089,-2.9263,-2.9202,-2.9213,-2.9217,-2.9264,-2.9285,-2.9304,-2.9056,-2.9055,-2.9054,0,0,-2.9043,-2.9045,-2.911,-2.9116,-2.9124,-2.9107,-2.9123,-2.912,-2.9114,-2.9178,-2.9127,-2.9163,-2.9222,-2.923,-2.9243,-2.9386,-2.9345,-2.9396,-2.9484,-2.9533,-2.9551,-2.9566,-2.9619,-2.9638,-2.9407,-2.9408,-2.9408,0,-2.9123,-2.9185,-2.9148,-2.92,-2.9216,-2.9153,-2.9219,-2.9226,-2.9244,-2.9257,-2.9217,-2.929,-2.9291,-2.9375,-2.941,-2.9421,-2.9438,-2.9397,-2.9551,-2.9566,-2.958,-2.963,-2.9649,-2.9414,-2.9413,-2.9412,-2.9412,0,-2.9284,-2.9328,-2.9379,-2.9398,-2.9419,-2.9478,-2.9449,-2.9475,-2.9446,-2.9433,-2.95,-2.9499,-2.9528,-2.9545,-2.9518,-2.9625,-2.9603,-2.9558,-2.9489,-2.9609,-2.9654,-2.9673,-2.9423,-2.9421,-2.9419,-2.9417,0,0,-2.9488,-2.9484,-2.9504,-2.9512,-2.9516,-2.9549,-2.9604,-2.9632,-2.9656,-2.967,-2.9716,-2.9766,-2.9725,-2.9738,-2.9711,-2.9755,-2.9869,-2.9704,-2.9703,-2.9736,-2.9988,-3.0024,-3.0046,-2.9842,-2.9845,-2.9848,-2.9988,0,-2.9627,-2.9722,-2.9689,-2.9786,-2.9826,-2.9767,-2.9815,-2.9823,-2.9812,-2.9844,-2.9831,-2.9869,-2.981,-2.9818,-2.9858,-2.9847,-2.992,-2.9836,-2.9885,-2.9887,-2.9887,-3.007,-3.0108,-3.024,-3.0006,-3.0009,-3.0011,0,-2.9802,-2.9823,-2.9925,-2.9921,-2.9937,-2.9981,-3.0004,-3.0036,-3.0043,-3.0032,-3.0047,-3.0011,-3.0065,-2.9994,-3.0068,-3.0012,-3.0029,-3.0027,-3.0031,-3.0036,-2.9958,-3.0081,-3.0282,-3.0302,-3.0038,-3.0036,-3.0034,0,-2.9943,-2.9996,-3.0064,-3.0072,-3.007,-3.0102,-3.0103,-3.0106,-3.0125,-3.0145,-3.0157,-3.0183,-3.0198,-3.0219,-3.019,-3.0141,-3.0269,-3.0196,-3.0262,-3.0263,-3.0294,-3.0293,-3.0501,-3.0302,-3.0302,-3.0302,-3.0301,0,-3.0103,-3.0167,-3.0127,-3.0169,-3.0239,-3.02,-3.0271,-3.0265,-3.0268,-3.0308,-3.0257,-3.0295,-3.0254,-3.0289,-3.0266,-3.0332,-3.0339,-3.0331,-3.0325,-3.0337,-3.0338,-3.035,-3.034,-3.0307,-3.0306,-3.0305,-3.0304,0,-3.0273,-3.0248,-3.0318,-3.031,-3.0309,-3.0362,-3.0355,-3.0393,-3.0377,-3.0428,-3.0438,-3.0414,-3.0452,-3.0425,-3.0462,-3.0447,-3.0534,-3.0513,-3.0532,-3.0527,-3.0596,-3.059,-3.082,-3.0849,-3.063,-3.0632,-3.0634,0,-3.0378,-3.0426,-3.0423,-3.0446,-3.0449,-3.0487,-3.0506,-3.0469,-3.0491,-3.0502,-3.054,-3.0573,-3.0598,-3.066,-3.0647,-3.0675,-3.0656,-3.0735,-3.066,-3.0671,-3.0659,-3.0657,-3.0662,-3.0751,-3.0753,-3.0755,-3.0757,0,-3.0566,-3.0552,-3.0581,-3.0607,-3.0631,-3.0649,-3.0663,-3.0685,-3.0647,-3.0674,-3.0712,-3.0731,-3.0769,-3.0803,-3.0826,-3.0826,-3.0787,-3.078,-3.0797,-3.0811,-3.082,-3.0818,-3.0575,-3.0776,-3.0774,-3.0772,-3.0771,-3.0771,-3.0708,-3.0748,-3.0753,-3.0787,-3.0794,-3.0808,-3.0844,-3.0832,-3.0863,-3.0892,-3.0867,-3.0913,-3.0918,-3.0945,-3.095,-3.0985,-3.0953,-3.0978,-3.0984,-3.0991,-3.1002,-3.0813,-3.0989,-3.0989,-3.0988,-3.0988,-3.0987,0,-3.0896,-3.0895,-3.0927,-3.0948,-3.0976,-3.0934,-3.0947,-3.0973,-3.1014,-3.1022,-3.1047,-3.1091,-3.1123,-3.1111,-3.114,-3.1171,-3.1153,-3.1179,-3.1178,-3.1179,-3.1028,-3.1011,-3.1193,-3.1193,-3.1193,-3.1193,-3.1193,-3.1193,-3.0997,-3.1063,-3.1049,-3.1117,-3.1116,-3.1161,-3.1172,-3.1185,-3.1191,-3.1242,-3.1269,-3.126,-3.1261,-3.1289,-3.1317,-3.1312,-3.1326,-3.136,-3.1349,-3.1209,-3.1189,-3.117,-3.1154,-3.1363,-3.1363,-3.1497,-3.1498,-3.1499]},{"header":{"parameterUnit":"m.s-1","parameterCategory":1,"la1":30.2991,"la2":30.254,"lo1":-89.0895,"lo2":-89.0444,"dy":0.0017,"dx":0.0017,"nx":28,"ny":28,"refTime":"2024-02-18T09:00:00:Z","depth":0,"parameterNumber":3,"parameterNumberName":"V-component_of_WINDS"},"data":[0,0,0,0,0,0,0,0,0,0,0,0,0,0,0,0,0,0,0,0,0,0,0,0,0,0,0,0,0,0,0,0,0,0,0,0,0,0,0,0,0,0,0,0,0,0,0,0,0,0,0,0,0,0,0,0,0,0,-3.4888,-3.4888,0,-3.4944,-3.4945,-3.4946,-3.4907,-3.4905,-3.4904,-3.4902,-3.4957,-3.496,-3.4963,0,0,0,0,0,0,0,0,0,0,0,0,0,-3.4742,-3.4745,-3.4888,-3.4888,-3.4889,-3.4944,-3.4945,-3.4946,-3.4907,-3.4905,-3.4903,-3.4901,-3.4956,-3.4959,-3.4963,0,0,0,0,0,0,0,0,0,0,0,0,0,-3.4802,-3.4746,-3.4888,-3.4877,-3.4876,-3.4944,-3.4945,-3.4946,-3.4908,-3.4905,-3.4903,-3.49,-3.4955,-3.4959,-3.4964,-3.5044,0,0,-3.4978,-3.498,0,0,0,0,0,0,0,0,-3.4799,-3.4808,-3.4878,-3.4878,-3.4877,-3.4916,-3.4914,-3.4979,-3.4908,-3.4896,-3.4902,-3.4899,-3.4945,-3.495,-3.4967,-3.5047,-3.5049,-3.4978,-3.4981,-3.4983,-3.4984,0,0,0,0,0,0,0,-3.4795,-3.4805,-3.491,-3.4879,-3.4878,-3.4868,-3.4873,-3.4926,-3.4934,-3.4897,-3.4894,-3.4901,-3.4944,-3.4962,-3.4968,-3.505,-3.4978,-3.4982,-3.4985,-3.4987,-3.5199,-3.5201,0,0,0,0,0,0,-3.4792,-3.4802,-3.4908,-3.4912,-3.4831,-3.4872,-3.4879,-3.4906,-3.4934,-3.4935,-3.4904,-3.4899,-3.4956,-3.4962,-3.4969,-3.5066,-3.4983,-3.4987,-3.499,-3.5196,-3.5199,-3.5202,0,0,0,0,0,0,-3.4789,-3.4802,-3.4906,-3.4856,-3.4869,-3.4878,-3.4909,-3.4909,-3.4926,-3.4939,-3.494,-3.4921,-3.4954,-3.4963,-3.5026,-3.5067,-3.4989,-3.4994,-3.5192,-3.5197,-3.5201,-3.5259,0,0,0,0,0,0,-3.4785,-3.4801,-3.4833,-3.4857,-3.4871,-3.4963,-3.4911,-3.4912,-3.4935,-3.493,-3.4955,-3.4957,-3.4952,-3.5019,-3.5031,-3.5072,-3.4997,-3.5189,-3.5194,-3.5199,-3.5253,-3.5265,-3.5274,0,0,0,0,0,-3.478,-3.4847,-3.4835,-3.4848,-3.4912,-3.4966,-3.4974,-3.4968,-3.4938,-3.497,-3.4978,-3.4956,-3.5061,-3.5026,-3.5039,-3.5082,-3.5186,-3.5193,-3.5199,-3.5249,-3.5263,-3.5274,0,0,0,0,0,0,-3.4826,-3.485,-3.4837,-3.4914,-3.4938,-3.4959,-3.4999,-3.4983,-3.5016,-3.501,-3.5001,-3.5007,-3.5073,-3.5083,-3.5045,-3.5161,-3.5118,-3.5128,-3.5152,-3.5165,-3.5175,-3.5172,-3.5001,0,0,0,0,0,-3.4846,-3.4889,-3.4906,-3.4972,-3.4985,-3.499,-3.5013,-3.5007,-3.5031,-3.5041,-3.5054,-3.5077,-3.5115,-3.5141,-3.5176,-3.5254,-3.5259,-3.529,-3.5301,-3.5309,-3.5317,-3.5358,-3.5372,-3.5223,-3.5223,-3.5223,0,0,-3.4885,-3.4903,-3.4931,-3.4982,-3.5,-3.5044,-3.4999,-3.5047,-3.5079,-3.5048,-3.5109,-3.5119,-3.5144,-3.5215,-3.5247,-3.5226,-3.5359,-3.5317,-3.5324,-3.5328,-3.5367,-3.5381,-3.5393,-3.5228,-3.5227,-3.5226,0,0,-3.4981,-3.4999,-3.5056,-3.5075,-3.5103,-3.5106,-3.5119,-3.5143,-3.5149,-3.521,-3.5187,-3.5224,-3.529,-3.5309,-3.5328,-3.5429,-3.541,-3.5441,-3.5495,-3.5536,-3.5548,-3.5558,-3.5594,-3.5607,-3.5449,-3.5449,-3.5449,0,-3.5026,-3.5093,-3.5086,-3.5137,-3.5159,-3.5134,-3.519,-3.5209,-3.5247,-3.5263,-3.5239,-3.5321,-3.5336,-3.5411,-3.5436,-3.5451,-3.5466,-3.5438,-3.5547,-3.5557,-3.5566,-3.56,-3.5614,-3.5452,-3.5452,-3.5452,-3.5451,0,-3.5147,-3.5193,-3.5235,-3.5274,-3.5301,-3.5354,-3.5355,-3.5382,-3.5373,-3.5378,-3.544,-3.5457,-3.5496,-3.5513,-3.5505,-3.5587,-3.5573,-3.5548,-3.5505,-3.5584,-3.5616,-3.5629,-3.5457,-3.5456,-3.5455,-3.5454,0,0,-3.5274,-3.5308,-3.5324,-3.5341,-3.537,-3.5405,-3.5456,-3.5495,-3.5518,-3.5545,-3.5587,-3.5643,-3.562,-3.5641,-3.5634,-3.567,-3.5748,-3.564,-3.5641,-3.566,-3.5839,-3.5858,-3.5873,-3.5735,-3.5738,-3.574,-3.5837,0,-3.5371,-3.5462,-3.5457,-3.5542,-3.5584,-3.556,-3.5604,-3.5626,-3.5631,-3.5666,-3.5671,-3.5712,-3.5678,-3.5691,-3.5725,-3.5732,-3.5784,-3.5724,-3.5774,-3.5775,-3.5769,-3.589,-3.591,-3.6001,-3.5849,-3.5851,-3.5853,0,-3.5496,-3.5529,-3.5618,-3.564,-3.5657,-3.5698,-3.5732,-3.5767,-3.579,-3.5791,-3.5814,-3.5801,-3.5852,-3.5807,-3.5876,-3.5835,-3.5855,-3.5861,-3.5864,-3.5869,-3.5819,-3.5898,-3.6029,-3.6043,-3.5872,-3.5871,-3.5869,0,-3.558,-3.5645,-3.5707,-3.5722,-3.575,-3.5778,-3.5791,-3.5812,-3.5835,-3.5865,-3.588,-3.5915,-3.5934,-3.596,-3.5956,-3.5924,-3.6026,-3.5981,-3.6028,-3.6028,-3.6051,-3.6049,-3.6187,-3.6063,-3.6063,-3.6062,-3.6062,0,-3.5689,-3.5744,-3.5745,-3.5783,-3.5844,-3.5837,-3.5897,-3.5906,-3.5925,-3.5963,-3.5944,-3.598,-3.5972,-3.6008,-3.6005,-3.6062,-3.607,-3.6072,-3.6071,-3.6074,-3.6074,-3.6087,-3.6081,-3.6066,-3.6065,-3.6064,-3.6064,0,-3.5793,-3.5796,-3.5861,-3.5882,-3.5888,-3.5932,-3.5949,-3.5984,-3.5988,-3.6036,-3.6047,-3.6052,-3.6093,-3.6092,-3.6138,-3.6135,-3.6205,-3.6197,-3.6198,-3.6196,-3.6243,-3.6239,-3.6395,-3.6414,-3.6277,-3.6278,-3.6279,0,-3.5863,-3.5905,-3.593,-3.5955,-3.597,-3.601,-3.6034,-3.6028,-3.6053,-3.6083,-3.6114,-3.6153,-3.6184,-3.625,-3.6257,-3.6292,-3.6284,-3.6336,-3.6289,-3.6291,-3.6284,-3.6282,-3.6286,-3.6345,-3.6347,-3.6348,-3.6349,0,-3.5986,-3.5985,-3.6021,-3.6058,-3.6087,-3.6115,-3.614,-3.6161,-3.6158,-3.6187,-3.6229,-3.6253,-3.63,-3.6339,-3.6372,-3.6383,-3.6366,-3.6364,-3.6376,-3.6381,-3.638,-3.6381,-3.6224,-3.636,-3.6359,-3.6358,-3.6358,-3.6357,-3.6075,-3.6112,-3.6135,-3.6175,-3.6194,-3.6218,-3.6252,-3.626,-3.6295,-3.6334,-3.6328,-3.6375,-3.6395,-3.6438,-3.6453,-3.6488,-3.6469,-3.6488,-3.6492,-3.6497,-3.6502,-3.6374,-3.6494,-3.6494,-3.6493,-3.6493,-3.6493,0,-3.6198,-3.6212,-3.6249,-3.6286,-3.6317,-3.6298,-3.6325,-3.6352,-3.6394,-3.6416,-3.6447,-3.6494,-3.6532,-3.6541,-3.6577,-3.6603,-3.6596,-3.6613,-3.6611,-3.6613,-3.6517,-3.6503,-3.6618,-3.6618,-3.6618,-3.6618,-3.6618,-3.6618,-3.6265,-3.6326,-3.6327,-3.6396,-3.6409,-3.6455,-3.6472,-3.6494,-3.6511,-3.6566,-3.6597,-3.6603,-3.662,-3.6656,-3.6689,-3.669,-3.6704,-3.6724,-3.6723,-3.6633,-3.662,-3.6608,-3.6595,-3.6728,-3.6728,-3.6816,-3.6817,-3.6818]}]]